Hourly Weather Kiti

Today, 21 October, Wednesday

Time Temperature Precipitation Wind Pressure Humidity
00:00 +22°C° 0 mm 6 mps 759 mmHg 77%
01:00 +22°C° 0 mm 5 mps 759 mmHg 72%
02:00 +22°C° 0 mm 3 mps 759 mmHg 71%
03:00 +22°C° 0 mm 3 mps 759 mmHg 65%
04:00 +22°C° 0 mm 3 mps 759 mmHg 60%
05:00 +24°C° 0 mm 3 mps 759 mmHg 54%
06:00 +25°C° 0 mm 3 mps 759 mmHg 50%
07:00 +27°C° 0 mm 3 mps 760 mmHg 46%
08:00 +28°C° 0 mm 3 mps 760 mmHg 42%
09:00 +29°C° 0 mm 3 mps 760 mmHg 39%
10:00 +31°C° 0 mm 3 mps 761 mmHg 36%
11:00 +33°C° 0 mm 3 mps 761 mmHg 33%
12:00 +32°C° 0.1 mm 5 mps 761 mmHg 35%
13:00 +30°C° 0.1 mm 6 mps 761 mmHg 36%
14:00 +29°C° 0.1 mm 8 mps 760 mmHg 38%
15:00 +29°C° 0 mm 7 mps 760 mmHg 39%
16:00 +28°C° 0 mm 6 mps 760 mmHg 41%
17:00 +27°C° 0 mm 5 mps 760 mmHg 42%
18:00 +26°C° 0 mm 5 mps 760 mmHg 49%
19:00 +23°C° 0 mm 5 mps 760 mmHg 56%
20:00 +22°C° 0 mm 5 mps 760 mmHg 63%
21:00 +22°C° 0 mm 5 mps 761 mmHg 65%
22:00 +22°C° 0 mm 4 mps 761 mmHg 66%
23:00 +21°C° 0 mm 4 mps 761 mmHg 68%

Tomorrow, 22 October, Thursday

Time Temperature Precipitation Wind Pressure Humidity
00:00 +21°C° 0 mm 4 mps 761 mmHg 67%
01:00 +21°C° 0 mm 4 mps 761 mmHg 66%
02:00 +21°C° 0 mm 4 mps 760 mmHg 66%
03:00 +21°C° 0 mm 3 mps 761 mmHg 62%
04:00 +21°C° 0 mm 3 mps 761 mmHg 59%
05:00 +23°C° 0 mm 2 mps 761 mmHg 56%
06:00 +24°C° 0 mm 2 mps 761 mmHg 51%
07:00 +25°C° 0 mm 2 mps 761 mmHg 47%
08:00 +26°C° 0 mm 3 mps 761 mmHg 43%
09:00 +27°C° 0 mm 2 mps 762 mmHg 41%
10:00 +28°C° 0 mm 2 mps 762 mmHg 39%
11:00 +28°C° 0 mm 2 mps 762 mmHg 38%
12:00 +29°C° 0 mm 2 mps 762 mmHg 35%
13:00 +31°C° 0 mm 2 mps 761 mmHg 33%
14:00 +32°C° 0 mm 2 mps 761 mmHg 31%
15:00 +30°C° 0 mm 2 mps 761 mmHg 41%
16:00 +28°C° 0 mm 2 mps 761 mmHg 52%
17:00 +26°C° 0 mm 2 mps 761 mmHg 63%
18:00 +25°C° 0 mm 3 mps 761 mmHg 67%
19:00 +24°C° 0 mm 3 mps 761 mmHg 72%
20:00 +22°C° 0 mm 4 mps 761 mmHg 76%
21:00 +22°C° 0 mm 4 mps 761 mmHg 76%
22:00 +21°C° 0 mm 4 mps 760 mmHg 76%
23:00 +21°C° 0 mm 4 mps 760 mmHg 76%

Day after tomorrow, 23 October, Friday

Time Temperature Precipitation Wind Pressure Humidity
00:00 +21°C° 0 mm 4 mps 760 mmHg 74%
01:00 +21°C° 0 mm 4 mps 760 mmHg 72%
02:00 +21°C° 0 mm 4 mps 760 mmHg 70%
03:00 +21°C° 0 mm 4 mps 760 mmHg 68%
04:00 +21°C° 0 mm 4 mps 759 mmHg 67%
05:00 +21°C° 0 mm 4 mps 759 mmHg 65%
06:00 +23°C° 0 mm 4 mps 759 mmHg 59%
07:00 +25°C° 0 mm 4 mps 760 mmHg 54%
08:00 +27°C° 0 mm 4 mps 760 mmHg 48%
09:00 +29°C° 0 mm 4 mps 760 mmHg 40%
10:00 +31°C° 0 mm 3 mps 760 mmHg 32%
11:00 +34°C° 0 mm 3 mps 760 mmHg 25%
12:00 +34°C° 0 mm 3 mps 759 mmHg 24%
13:00 +34°C° 0 mm 3 mps 759 mmHg 24%
14:00 +34°C° 0 mm 4 mps 759 mmHg 24%
15:00 +32°C° 0 mm 4 mps 758 mmHg 29%
16:00 +30°C° 0 mm 4 mps 758 mmHg 34%
17:00 +28°C° 0 mm 4 mps 758 mmHg 40%
18:00 +27°C° 0 mm 4 mps 758 mmHg 46%
19:00 +25°C° 0 mm 4 mps 758 mmHg 53%
20:00 +23°C° 0 mm 4 mps 758 mmHg 59%
21:00 +23°C° 0 mm 4 mps 758 mmHg 58%
22:00 +23°C° 0 mm 4 mps 757 mmHg 57%
23:00 +23°C° 0 mm 5 mps 757 mmHg 56%

24 October, Saturday

Time Temperature Precipitation Wind Pressure Humidity
00:00 +23°C° 0 mm 5 mps 757 mmHg 53%
01:00 +23°C° 0 mm 5 mps 757 mmHg 50%
02:00 +23°C° 0 mm 5 mps 756 mmHg 47%
03:00 +23°C° 0 mm 4 mps 756 mmHg 44%
04:00 +23°C° 0 mm 4 mps 756 mmHg 40%
05:00 +24°C° 0 mm 3 mps 756 mmHg 36%
06:00 +25°C° 0 mm 3 mps 756 mmHg 34%
07:00 +27°C° 0 mm 3 mps 756 mmHg 32%
08:00 +29°C° 0 mm 3 mps 756 mmHg 29%
09:00 +30°C° 0 mm 2 mps 756 mmHg 28%
10:00 +32°C° 0 mm 2 mps 756 mmHg 27%
11:00 +33°C° 0 mm 1 mps 756 mmHg 25%
12:00 +34°C° 0 mm 2 mps 756 mmHg 26%
13:00 +34°C° 0 mm 3 mps 756 mmHg 27%
14:00 +35°C° 0 mm 5 mps 756 mmHg 28%
15:00 +33°C° 0 mm 6 mps 756 mmHg 32%
16:00 +30°C° 0 mm 7 mps 756 mmHg 36%
17:00 +29°C° 0 mm 8 mps 756 mmHg 40%
18:00 +28°C° 0 mm 6 mps 756 mmHg 41%
19:00 +27°C° 0 mm 4 mps 756 mmHg 42%
20:00 +27°C° 0 mm 3 mps 757 mmHg 43%
21:00 +26°C° 0 mm 2 mps 757 mmHg 43%
22:00 +26°C° 0 mm 2 mps 757 mmHg 44%
23:00 +25°C° 0 mm 2 mps 757 mmHg 45%

25 October, Sunday

Time Temperature Precipitation Wind Pressure Humidity
00:00 +25°C° 0 mm 2 mps 756 mmHg 46%
01:00 +25°C° 0 mm 2 mps 756 mmHg 47%
02:00 +25°C° 0 mm 2 mps 756 mmHg 48%
03:00 +24°C° 0 mm 2 mps 756 mmHg 55%
04:00 +23°C° 0 mm 2 mps 756 mmHg 61%
05:00 +22°C° 0 mm 1 mps 756 mmHg 68%
06:00 +24°C° 0 mm 1 mps 756 mmHg 58%
07:00 +26°C° 0 mm 2 mps 756 mmHg 48%
08:00 +28°C° 0 mm 2 mps 757 mmHg 38%
09:00 +30°C° 0 mm 2 mps 757 mmHg 33%
10:00 +31°C° 0 mm 1 mps 756 mmHg 27%
11:00 +33°C° 0 mm 1 mps 756 mmHg 22%
12:00 +34°C° 0 mm 2 mps 756 mmHg 20%
13:00 +35°C° 0 mm 4 mps 756 mmHg 17%
14:00 +36°C° 0 mm 5 mps 755 mmHg 15%
15:00 +33°C° 0 mm 5 mps 755 mmHg 22%
16:00 +30°C° 0 mm 4 mps 755 mmHg 29%
17:00 +27°C° 0 mm 4 mps 755 mmHg 35%
18:00 +26°C° 0 mm 4 mps 756 mmHg 38%
19:00 +26°C° 0 mm 3 mps 756 mmHg 41%
20:00 +25°C° 0 mm 3 mps 756 mmHg 44%
21:00 +25°C° 0 mm 3 mps 756 mmHg 44%
22:00 +24°C° 0 mm 2 mps 756 mmHg 43%
23:00 +24°C° 0 mm 2 mps 756 mmHg 42%

26 October, Monday

Time Temperature Precipitation Wind Pressure Humidity
00:00 +23°C° 0 mm 2 mps 756 mmHg 43%
01:00 +23°C° 0 mm 2 mps 756 mmHg 44%
02:00 +23°C° 0 mm 2 mps 756 mmHg 46%
03:00 +21°C° 0 mm 2 mps 756 mmHg 49%
04:00 +21°C° 0 mm 2 mps 756 mmHg 52%
05:00 +21°C° 0 mm 2 mps 756 mmHg 56%
06:00 +24°C° 0 mm 2 mps 756 mmHg 50%
07:00 +26°C° 0 mm 2 mps 757 mmHg 45%
08:00 +28°C° 0 mm 2 mps 757 mmHg 40%
09:00 +29°C° 0 mm 2 mps 757 mmHg 34%
10:00 +31°C° 0 mm 2 mps 757 mmHg 28%
11:00 +33°C° 0 mm 1 mps 757 mmHg 23%
12:00 +34°C° 0 mm 2 mps 757 mmHg 24%
13:00 +34°C° 0 mm 3 mps 756 mmHg 25%
14:00 +34°C° 0 mm 4 mps 756 mmHg 26%
15:00 +30°C° 0 mm 3 mps 756 mmHg 35%
16:00 +28°C° 0 mm 3 mps 756 mmHg 44%
17:00 +26°C° 0 mm 3 mps 756 mmHg 54%
18:00 +25°C° 0 mm 3 mps 756 mmHg 61%
19:00 +24°C° 0 mm 3 mps 756 mmHg 67%
20:00 +22°C° 0 mm 3 mps 756 mmHg 74%
21:00 +22°C° 0 mm 3 mps 756 mmHg 73%
22:00 +22°C° 0 mm 3 mps 756 mmHg 72%
23:00 +23°C° 0 mm 2 mps 756 mmHg 70%

27 October, Tuesday

Time Temperature Precipitation Wind Pressure Humidity
00:00 +21°C° 0 mm 2 mps 756 mmHg 74%
01:00 +21°C° 0 mm 2 mps 756 mmHg 77%
02:00 +21°C° 0 mm 3 mps 756 mmHg 81%
03:00 +21°C° 0 mm 3 mps 756 mmHg 81%
04:00 +21°C° 0 mm 3 mps 756 mmHg 82%
05:00 +20°C° 0 mm 3 mps 756 mmHg 82%
06:00 +23°C° 0 mm 2 mps 756 mmHg 76%
07:00 +24°C° 0 mm 2 mps 757 mmHg 69%
08:00 +25°C° 0 mm 2 mps 757 mmHg 63%
09:00 +27°C° 0 mm 2 mps 757 mmHg 56%
10:00 +28°C° 0 mm 2 mps 757 mmHg 49%
11:00 +30°C° 0 mm 2 mps 757 mmHg 42%
12:00 +30°C° 0 mm 3 mps 757 mmHg 42%
13:00 +30°C° 0 mm 4 mps 757 mmHg 41%
14:00 +30°C° 0 mm 6 mps 757 mmHg 41%
15:00 +28°C° 0 mm 5 mps 757 mmHg 48%
16:00 +27°C° 0 mm 5 mps 757 mmHg 56%
17:00 +25°C° 0 mm 5 mps 757 mmHg 63%
18:00 +23°C° 0 mm 4 mps 757 mmHg 68%
19:00 +22°C° 0 mm 3 mps 757 mmHg 72%
20:00 +21°C° 0 mm 3 mps 758 mmHg 76%
21:00 +21°C° 0 mm 2 mps 758 mmHg 79%
22:00 +21°C° 0 mm 2 mps 758 mmHg 82%
23:00 +21°C° 0 mm 1 mps 758 mmHg 85%
Show more